ZHONGXING-1D

Last updated on Tue Sep 22 2026 00:03:15 GMT+0000 (Coordinated Universal Time)

1 49505U 21114A 26264.79999622 -.00000340 00000+0 00000+0 0 9991 2 49505 0.0513 324.6114 0000500 280.7919 173.4340 1.00267240 17783
UTC large
Height (km)
Speed (km/s)
/
Latitude / Longitude
Inclination (degrees)
Orbital Period (minutes)
Azimuth
Elevation
Range (km)
Doppler Factor

Next 0 passes for location: London (51.5072 / 0.1276)

No passes found over London.
ZHONGXING-1D